Location: Brabourne
(51.1333°N, 1.0000°E)
Time: 08:41:24
(UTC+00:00)

NOSS 2-2 (C) - Pass Details

Date: 20 June 2021
Orbit: 454 x 1753 km, 63.3° (Epoch: 30 July)

Event Time Altitude Azimuth Distance (km) Brightness Sun altitude
Exits shadow 02:21:49 13° 218° (SW) 1,439 4.8 -9.0°
Maximum altitude 02:24:51 78° 133° (SE) 493 3.0 -8.7°
Drops below altitude 10° 02:28:42 10° 46° (NE) 1,797 7.5 -8.4°
Sets 02:31:07 0° 46° (NE) 2,828 9.0 -8.1°
